This demonstration page uses our WeatherBlox Daily Observations layout. Learn more.

Left ArrowRight Arrow

36.17497, -115.13722

Hourly Observations for December 17, 2018

Temp ( °F °C ) Dew Point ( °F °C ) Humidity (%) Winds ( mph kmh ) Pressure ( in mb ) Visibility ( mi km ) Precip ( " mm )
12:53 am 00:53 Clear 45 7.2 25 -3.9 46 46 WNW 5 7 30.16 1022 10 16.0934 0 0
1:53 am 01:53 Clear 45 7.2 25 -3.9 46 46 W 3 6 30.16 1021 10 16.0934 0 0
2:53 am 02:53 Clear 43 6.1 25 -3.9 49 49 NW 3 6 30.15 1021 10 16.0934 0 0
3:53 am 03:53 Clear 44 6.7 26 -3.3 49 49 NW 3 6 30.15 1021 10 16.0934 0 0
4:53 am 04:53 Clear 45 7.2 26 -3.3 48 48 Calm 30.15 1021 10 16.0934 0 0
5:53 am 05:53 Clear 45 7.2 26 -3.3 48 48 Calm 30.16 1021 10 16.0934 0 0
6:53 am 06:53 Sunny 46 7.8 27 -2.8 47 47 WNW 5 7 30.17 1022 10 16.0934 0 0
7:53 am 07:53 Mostly Cloudy 48 8.9 26 -3.3 42 42 Calm 30.19 1022 10 16.0934 0 0
8:53 am 08:53 Mostly Sunny 51 10.6 24 -4.4 35 35 S 5 7 30.2 1023 10 16.0934 0 0
9:53 am 09:53 Sunny 52 11.1 24 -4.4 34 34 ESE 3 6 30.21 1023 10 16.0934 0 0
10:53 am 10:53 Sunny 57 13.9 25 -3.9 29 29 Calm 30.19 1022 10 16.0934 0 0
11:53 am 11:53 Mostly Sunny 56 13.3 25 -3.9 30 30 VRB 3 6 30.16 1021 10 16.0934 0 0
12:53 pm 12:53 Partly Cloudy 56 13.3 24 -4.4 29 29 E 6 9 30.13 1020 10 16.0934 0 0
1:53 pm 13:53 Partly Cloudy 58 14.4 23 -5 26 26 E 13 20 30.12 1020 10 16.0934 0 0
2:53 pm 14:53 Sunny 58 14.4 23 -5 26 26 E 7 11 30.14 1021 10 16.0934 0 0
3:53 pm 15:53 Sunny 58 14.4 22 -5.6 25 25 ENE 8 13 30.14 1021 10 16.0934 0 0
4:53 pm 16:53 Clear 55 12.8 22 -5.6 28 28 E 6 9 30.16 1021 10 16.0934 0 0
5:53 pm 17:53 Clear 52 11.1 23 -5 32 32 WNW 6 9 30.17 1022 10 16.0934 0 0
6:53 pm 18:53 Clear 49 9.4 23 -5 36 36 NW 3 6 30.19 1022 10 16.0934 0 0
7:53 pm 19:53 Clear 47 8.3 26 -3.3 44 44 NW 3 6 30.21 1023 10 16.0934 0 0
8:53 pm 20:53 Clear 46 7.8 26 -3.3 46 46 NNW 5 7 30.22 1023 10 16.0934 0 0
9:53 pm 21:53 Clear 44 6.7 25 -3.9 47 47 NNW 5 7 30.23 1024 10 16.0934 0 0
10:53 pm 22:53 Clear 44 6.7 25 -3.9 47 47 WNW 6 9 30.23 1024 10 16.0934 0 0
11:53 pm 23:53 Clear 42 5.6 24 -4.4 49 49 NNW 5 7 30.22 1024 10 16.0934 0 0

Powered by AerisWeather